Weather History for KCYS - August, 2013

Change the Weather History Date:

Sunday, August 18, 2013

  Actual Average Record
Temperature  
Mean Temperature 71 °F 68 °F  
Max Temperature 89 °F 81 °F 93 °F (1986)
Min Temperature 53 °F 54 °F 44 °F (1978)
Degree Days  
Heating Degree Days 0 1  
Month to date heating degree days 8 18  
Since 1 June heating degree days 77 174  
Since 1 July heating degree days 15 40  
Cooling Degree Days 6 4  
Month to date cooling degree days 63 82  
Year to date cooling degree days 346 292  
Since 1 June cooling degree days 340 289  
Growing Degree Days 22 (Base 50)    
Moisture  
Dew Point 45 °F    
Average Humidity 55    
Maximum Humidity 93    
Minimum Humidity 16    
Precipitation  
Precipitation 0.01 in 0.06 in 0.91 in (1930)
Month to date precipitation 0.88 1.30  
Year to date precipitation 8.12 11.80  
Snow  
Snow 0.00 in 0.00 in - ()
Month to date snowfall 0.0 0.0  
Since 1 July snowfall 0.0 0.0  
Snow Depth 0.00 in    
Sea Level Pressure  
Sea Level Pressure 29.99 in    
Wind  
Wind Speed 7 mph (South)    
Max Wind Speed 23 mph    
Max Gust Speed 31 mph    
Visibility 10 miles    
Events Rain , Thunderstorm    
T = Trace of Precipitation, MM = Missing Value Source: NWS Daily Summary

Daily Weather History Graph

Daily Weather History Graph

Search for Another Location

Airport or City:

Trip Planner

Search our weather history database for the weather conditions in past years. The results will help you decide how hot, cold, wet, or windy it might be!

Date:

Astronomy

Aug. 18, 2013 Rise Set
Actual Time 6:12 AM MDT 7:53 PM MDT
Civil Twilight 5:42 AM MDT 8:22 PM MDT
Nautical Twilight 5:07 AM MDT 8:57 PM MDT
Astronomical Twilight 4:29 AM MDT 9:35 PM MDT
Moon 6:01 PM MDT (8/18) 3:23 AM MDT (8/18)
Length of Visible Light 14h 39m
Length of Day
13h 41m
Waxing Gibbous, 92% of the Moon is Illuminated
Aug 18
Waxing Gibbous
Aug 20
Full
Aug 28
Last Quarter
Sep 5
New
Sep 12
First Quarter

Hourly Weather History & Observations

Time (MDT) Temp. Dew Point Humidity Pressure Visibility Wind Dir Wind Speed Gust Speed Precip Events Conditions
12:53 AM 63.0 °F 57.9 °F 84% 29.90 in 10.0 mi SSW 4.6 mph - N/A   Clear
1:53 AM 62.1 °F 57.9 °F 86% 29.89 in 10.0 mi Calm Calm - N/A   Clear
2:53 AM 57.0 °F 55.0 °F 93% 29.90 in 8.0 mi WSW 4.6 mph - N/A   Clear
3:53 AM 55.9 °F 54.0 °F 93% 29.89 in 8.0 mi West 3.5 mph - N/A   Clear
4:53 AM 55.9 °F 54.0 °F 93% 29.89 in 8.0 mi West 4.6 mph - N/A   Clear
5:53 AM 54.0 °F 48.0 °F 80% 29.90 in 10.0 mi WNW 5.8 mph - N/A   Clear
6:53 AM 55.9 °F 45.0 °F 67% 29.92 in 10.0 mi West 8.1 mph - N/A   Clear
7:53 AM 66.0 °F 45.0 °F 47% 29.92 in 10.0 mi WSW 3.5 mph - N/A   Clear
8:53 AM 78.1 °F 44.1 °F 30% 29.90 in 10.0 mi Calm Calm - N/A   Clear
9:53 AM 82.0 °F 37.0 °F 20% 29.89 in 10.0 mi SSE 4.6 mph - N/A   Clear
10:53 AM 87.1 °F 37.0 °F 17% 29.88 in 10.0 mi ESE 8.1 mph - N/A   Clear
11:53 AM 87.1 °F 36.0 °F 16% 29.89 in 10.0 mi ESE 8.1 mph - N/A   Clear
12:16 PM 86.0 °F 35.6 °F 17% 30.18 in 10.0 mi ESE 5.8 mph - N/A Thunderstorm Thunderstorm
12:48 PM 80.6 °F 37.4 °F 21% 30.18 in 10.0 mi East 15.0 mph 20.7 mph N/A   Partly Cloudy
12:53 PM 81.0 °F 37.9 °F 21% 29.91 in 10.0 mi ESE 12.7 mph - N/A   Scattered Clouds
1:07 PM 75.2 °F 46.4 °F 36% 30.19 in 10.0 mi ESE 12.7 mph - 0.01 in Rain , Thunderstorm Light Rain
1:46 PM 82.4 °F 41.0 °F 23% 30.18 in 10.0 mi NE 13.8 mph 20.7 mph 0.01 in   Clear
1:53 PM 82.9 °F 42.1 °F 24% 29.90 in 10.0 mi ENE 17.3 mph 24.2 mph 0.01 in   Clear
2:53 PM 81.0 °F 39.9 °F 23% 29.95 in 10.0 mi SE 17.3 mph - N/A   Mostly Cloudy
3:07 PM 78.8 °F 42.8 °F 28% 30.20 in 10.0 mi SSE 17.3 mph 27.6 mph N/A   Mostly Cloudy
3:16 PM 78.8 °F 39.2 °F 24% 30.21 in 10.0 mi SSE 15.0 mph 21.9 mph N/A Thunderstorm Thunderstorm
3:53 PM 73.0 °F 46.0 °F 38% 30.04 in 10.0 mi WSW 16.1 mph 25.3 mph 0.00 in Rain , Thunderstorm Light Rain
4:03 PM 71.6 °F 46.4 °F 41% 30.28 in 10.0 mi West 13.8 mph 31.1 mph 0.00 in Rain Light Rain
4:40 PM 69.8 °F 50.0 °F 49% 30.24 in 10.0 mi SW 12.7 mph - 0.00 in Rain Light Rain
4:53 PM 71.1 °F 50.0 °F 47% 30.00 in 10.0 mi SSW 11.5 mph - 0.00 in   Partly Cloudy
5:53 PM 77.0 °F 46.9 °F 34% 29.96 in 10.0 mi WSW 9.2 mph - N/A   Clear
6:53 PM 77.0 °F 45.0 °F 32% 29.93 in 10.0 mi SSW 6.9 mph - N/A   Clear
7:53 PM 71.1 °F 45.0 °F 39% 29.94 in 10.0 mi SW 3.5 mph - N/A   Clear
8:53 PM 68.0 °F 46.0 °F 45% 29.95 in 10.0 mi South 3.5 mph - N/A   Clear
9:53 PM 71.1 °F 46.0 °F 41% 29.94 in 10.0 mi North - - N/A   Scattered Clouds
10:53 PM 66.0 °F 48.0 °F 52% 29.95 in 10.0 mi South 5.8 mph - 0.00 in   Clear
11:53 PM 62.1 °F 48.9 °F 62% 29.95 in 10.0 mi SSW 8.1 mph - N/A   Clear